User: anonymous   Login
Location: Peebles
(55.6412°N, 3.1714°W)
Time: 23:52:17
(UTC+00:00)
Language:

Cosmos 1844 Rocket - Orbit

View from above orbital plane
View from above orbital plane
View from above satellite
View from above satellite

Ground track
Ground track

The orbit data is extracted from the following two-line orbital elements,

1 17974U 87041B   21331.58356858  .00000219  00000-0  13188-3 0  9992
2 17974  71.0080  87.2753 0011735  69.4587 301.7473 14.17280828786595
Epoch (UTC): 27 November 2021 14:00:20
Eccentricity: 0.0011735
inclination: 71.0080°
perigee height: 826 km
apogee height: 843 km
right ascension of ascending node: 87.2753°
argument of perigee: 69.4587°
revolutions per day: 14.17280828
mean anomaly at epoch: 301.7473°
orbit number at epoch: 78659

The dashed part of the orbit path shows where the satellite is in the earth's shadow,  

DLR